Regional Weather Roundup
Issued by NWS

Home | Current Version | Previous Version | Text Only | Print | Product List | Glossary On
Versions: 1 2 3 4 5 6 7 8 9 10 11 12 13 14 15 16 17 18 19 20 21 22 23 24 25 26 27 28
000
ASUS45 KPSR 250210
RWRAZ

ARIZONA HOURLY REGIONAL WEATHER ROUNDUP
NATIONAL WEATHER SERVICE PHOENIX AZ
700 PM MST TUE JAN 24 2017

NOTE: FAIR INDICATES FEW OR NO CLOUDS BELOW 12,000 FEET WITH NO
SIGNIFICANT WEATHER AND/OR OBSTRUCTIONS TO VISIBILITY.

AZZ001>003-036-250300-
NORTHWEST ARIZONA

CITY           SKY/WX    TMP DP  RH WIND       PRES   REMARKS
BULLHEAD CITY  PTCLDY    50  34  53 SE8       30.01R
KINGMAN        PTCLDY    36  26  67 SW7       29.98R WCI  30
$$

AZZ004>008-015-016-018-250300-
NORTH CENTRAL ARIZONA

CITY           SKY/WX    TMP DP  RH WIND       PRES   REMARKS
GRAND CANYON   LGT SNOW  21  20  96 SW6       29.90R FOG     WCI  13
WILLIAMS       MOCLDY    23  19  86 SW10      29.91R WCI  12
PRESCOTT       CLOUDY    29  28  96 NW3       29.96R
FLAGSTAFF      MOCLDY    17  14  88 CALM      29.89R
PAYSON         MOCLDY    30  27  86 CALM      29.98R
PAGE           CLEAR     35  12  38 W8        29.89R WCI  29
$$

AZZ009>014-017-250300-
NORTHEAST ARIZONA

CITY           SKY/WX    TMP DP  RH WIND       PRES   REMARKS
WINSLOW        MOCLDY    32  26  78 SW22G28   29.92R WCI  19
SAINT JOHNS    PTCLDY    29  21  72 W18       29.89R WCI  16
SHOW LOW       FLURRIES  23  18  80 SW7       29.93R WCI  15
$$

AZZ023-250300-
GREATER PHOENIX AREA

CITY           SKY/WX    TMP DP  RH WIND       PRES   REMARKS
PHOENIX        PTCLDY    52  31  44 CALM      29.99R
BUCKEYE        PTCLDY    48  32  53 W6        30.01R
GLENDALE       PTCLDY    52  36  54 CALM      30.01R
LUKE AFB       CLEAR     50  40  67 SW3       29.99R
DEER VALLEY    PTCLDY    48  35  60 CALM      29.99R
SCOTTSDALE     PTCLDY    49  32  52 CALM      30.01R
MESA-GATEWAY     N/A     48  30  49 W3        30.01R
CHANDLER       PTCLDY    52  30  43 W6        30.01R
$$

AZZ027-028-250300-
SOUTHWEST MARICOPA COUNTY AND PINAL COUNTY

CITY           SKY/WX    TMP DP  RH WIND       PRES   REMARKS
CASA GRANDE    CLEAR     48  32  53 W3        30.02R
GILA BEND      CLEAR     50  31  48 SW6       30.01R
$$

AZZ503-504-507>509-250300-
SOUTHEAST ARIZONA

CITY           SKY/WX    TMP DP  RH WIND       PRES   REMARKS
TUCSON         PTCLDY    47  30  51 NW9       30.02R
DAVIS-MONTHAN  CLEAR     45  30  57 NW6       30.01R
RYAN FIELD     CLEAR     46  32  57 W21       30.02
NOGALES        PTCLDY    41  25  53 NW5       29.99R
SIERRA VISTA   CLEAR     35  22  59 W7        29.99R WCI  29
DOUGLAS        PTCLDY    43  21  41 W13       29.97R
SAFFORD        PTCLDY    42  30  62 NW12      29.95R
$$

AZZ020-021-025-026-031-250300-
SOUTHWEST ARIZONA

CITY           SKY/WX    TMP DP  RH WIND       PRES   REMARKS
YUMA           CLEAR     54  34  46 W5        30.02R
$$

CAZ031-033-041-043-047-048-061-250300-
SOUTHERN CALIFORNIA

CITY           SKY/WX    TMP DP  RH WIND       PRES   REMARKS
DOWNTOWN L.A.  CLOUDY    54  42  64 CALM      30.06R
L.A. AIRPORT   CLOUDY    53  40  61 W8        30.06R
SAN DIEGO      PTCLDY    54  41  61 NW3       30.09R
BURBANK        CLOUDY    50  38  63 N5        30.05R
ONTARIO        MOCLDY    48  39  71 SW7       30.05R
RIVERSIDE      CLOUDY    48  40  73 W5        30.05R
PALM SPRINGS   PTCLDY    52  37  56 SW3       30.04R
EL CENTRO NAS  PTCLDY    54  36  50 W12       30.05R
IMPERIAL       MOCLDY    55  38  52 SW9       30.02R
BLYTHE         CLEAR     56  30  37 CALM      30.01R
NEEDLES        PTCLDY    53  34  48 NE6       30.01R
$$

NVZ020-UTZ003-250300-
SOUTHERN NEVADA-UTAH

CITY           SKY/WX    TMP DP  RH WIND       PRES   REMARKS
LAS VEGAS      MOCLDY    46  23  40 NW3       29.98R
SALT LAKE CITY CLOUDY    30  21  69 N3        29.92R
$$

NMZ009-TXZ055-250300-
NEW MEXICO-WEST TEXAS

CITY           SKY/WX    TMP DP  RH WIND       PRES   REMARKS
ALBUQUERQUE    PTCLDY    34  16  47 W12G20    29.85R WCI  25
EL PASO        MOCLDY    49  17  28 NW21      29.87R
$$


........................KEY........................
SKY/WX - SKY CONDITION/WEATHER
TMP    - TEMPERATURE IN FAHRENHEIT
DP     - DEW POINT IN FAHRENHEIT
RH     - RELATIVE HUMIDITY IN PERCENT
WIND   - DIRECTION AND SPEED IN MILES PER HOUR (MPH)
VRB    - VARIABLE WIND DIRECTION
PRES   - MEAN SEA LEVEL PRESSURE IN INCHES OF MERCURY
         F - FALLING PRESSURE   R - RISING PRESSURE
         S - STEADY PRESSURE
VSB    - VISIBILITY IN MILES
HX     - HEAT INDEX IN FAHRENHEIT
WCI    - WIND CHILL INDEX IN FAHRENHEIT
TC     - TEMPERATURE IN CELSIUS WHICH IS ALSO KNOWN AS
         TEMPERATURE IN CENTIGRADE
AFB    - AIR FORCE BASE
         LUKE AFB IS LUKE AIR FORCE BASE
         DAVIS-MONTHAN IS DAVIS-MONTHAN AIR FORCE BASE
NAS    - NAVAL AIR STATION
         EL CENTRO NAS IS EL CENTRO NAVAL AIR STATION
N/A    - NOT AVAILABLE





USA.gov is the U.S. government's official web portal to all federal, state and local government web resources and services.